{"data":{"norad_id":56946,"intl_designator":"2023-084Q","name":"GREGOIRE","alt_names":[],"object_type":"PAYLOAD","status":"ACTIVE","operator":null,"country":"BEL","launch_date":"2023-06-12","launch_site_code":"AFWTR","launch_vehicle":null,"mission":null,"orbit_class":"UNKNOWN","rcs_meters":null,"size_class":null,"mass_kg":null,"dimensions":null,"purposes":[],"wikipedia_slug":null,"has_3d_model":false,"image_url":null,"decayed_at":null,"tle_current":{"epoch":"2026-05-25T02:48:23.037984Z","epoch_age_seconds":61470,"freshness":"FRESH","line1":"1 56946U 23084Q   26145.11693331  .00007530  00000+0  20394-3 0  9997","line2":"2 56946  97.6210 288.1042 0006909  49.9795 310.2054 15.37955472164160","mean_motion":15.37955472,"eccentricity":0.0006909,"inclination_deg":97.621,"raan_deg":288.1042,"arg_perigee_deg":49.9795,"mean_anomaly_deg":310.2054,"bstar":0.00020394,"rev_number":16416,"period_min":93.630799214712,"perigee_km":447.43694260331,"apogee_km":456.87504145969,"semimajor_km":6830.2929920315,"source":"CELESTRAK","updated_at":"2026-05-25T13:37:59.784972Z"}}}